Location: Callanans Corners
(42.5326°N, 73.8846°W)
Time: 14:48:22
(UTC+00:00)

SJ-6B - Pass Details

Date: 06 October 2022
Orbit: 505 x 574 km, 97.5° (Epoch: 28 November)

Event Time Altitude Azimuth Distance (km) Brightness Sun altitude
Exits shadow 23:37:54 17° 59° (ENE) 1,353 4.3 -13.7°
Drops below altitude 10° 23:40:07 10° 24° (NNE) 1,769 5.2 -14.1°
Sets 23:42:46 0° 5° (N) 2,678 6.4 -14.6°
